STARLINK-30703, 57954

Orbit data source: Space-Track

STARLINK-30703, 57954 is a payload satellite owned by SpaceX/Seattle (US) in LEO that was launched on Mon, 25 Sep 2023 UTC via an FALCON 9 launch vehicle from the Air Force Western Test Range (AFWTR). Payload-class satellites include a variety of spacecraft equipped with specific instruments for various scientific and technological missions. These include communications satellites like Starlink; space stations such as the ISS; scientific satellites like the Hubble; Earth observation satellites from companies like Planet Labs, Umbra, and HawkEye 360; GPS; miniature CubeSats for education and research; and military/defense satellites.

Loading next visibility...
Identifier
57954, 2023-148V
Orbit
LEO
Country
Flag of USUS
Related business
Manufacturer
SpaceX/Seattle
Mission
Operational Commercial Communications
Bus & Motor
STARLINK V2M, Unknown motor
Mass
730 kg wet, ~700 kg dry
Launch date (UTC)
2023-09-25 (3 years ago)
Launch vehicle
FALCON 9
Launch site
Air Force Western Test Range (AFWTR)
Object type
Payload
Rocket body
Debris
Shape & HBR
Box + 2 Pan, 17.7 m
Radar Cross Section
33.884 m², Large (>1 m²)

Expand to show TLE details & history
Last TLE update: 2 days ago

TLE from 2 days ago
0 STARLINK-30703
1 57954U 23148V   26171.39723731  .00000564  00000-0  27836-4 0  9995
2 57954  53.1612 255.9868 0001181  77.8095 282.3039 15.34397049154305
Epoch: 2026-06-20T09:32Z
TLE epoch observation values (Epoch: 2026-06-20T09:32:01.303Z)
Latitude
-0.0001°
Longitude
-155.63115°
Altitude
463.441 km
Speed
7.636 km/s
True Right ascension
17h 03m 56s
True Declination
0° 00' 00"
Sunlit
Object was in full shadow at epoch
Visualization orbit readout
Latitude
Unknown
Longitude
Unknown
Altitude
Unknown
Speed
Unknown
Apparent Right ascension
Unknown
Apparent Declination
Unknown
Sunlit
N/A
Visualization observer readout
Local Sidereal Time
21:31:36
Azimuth
Unknown
Elevation
Unknown
Doppler factor
Unknown
Orbital elements
Apogee altitude
463.777 km
Perigee altitude
462.161 km
Semi-major axis
6,841.106 km
Eccentricity
0.00012
Inclination
53.1612°
RAAN
255.9868°
Arg. of periapsis
77.8095°
True anomaly
282.29068°
Mean anomaly
282.3039°
Eccentric anomaly
282.29729°
Mean motion
3.83578 °/min
Orbital period
93.85 mins
BSTAR
0.000027836
Loading maneuver chart data...
Computing Atmospheric mass density...
Loading historical data...
Loading historical data...
Loading historical data...
Loading historical data...
Loading historical data...
Loading historical data...
Loading historical data...

Documentation

Showing up to 5 results
|